Погода в Эсенкёе

Турция     40°37′18″N   28°57′24″E
темп.,
°C
ветер,
м/с
пор.,
м/с
влажн.,
%
обл.,
%
осадки,
мм/ч
давл.,
гПа
погр.,
м
8 декабря, ср
ср800:00+11ююв1277100 0.4 100093
03:00+10ююв117455 0.4 100130
06:00+10ю117599 0.0 100219
09:00+10зсз0176100 0.0 100527
12:00+11зюз3382100 1.4 1007338
15:00+10зсз228350 2.5 1008442
18:00+9ссз2288100 0.6 1010137
21:00+9зюз128795 1.9 1013195
9 декабря, чт
чт900:00+8з2390100 0.1 1015324
03:00+8ююз129473 0.6 1016206
06:00+8юв129013 0.0 1017151
09:00+8юв12815 0.1 101892
12:00+11ююв13572 0.0 1018365
15:00+13вюв12512 0.0 1016450
18:00+11в22590 0.0 101615
21:00+11в336232 0.0 101732
10 декабря, пт
пт1000:00+11вюв45600 0.0 101764
03:00+11в45600 0.0 101770
06:00+10в45620 0.0 101671
09:00+10вюв44640 0.0 101672
12:00+14ююв375678 0.0 1016430
15:00+17ююз71452100 0.0 10141449
18:00+14ююз6136785 0.4 1014479
21:00+12ююз4127750 1.6 1015470
11 декабря, сб
сб1100:00+11з41088100 1.1 1016456
03:00+11ююз39787 1.4 1016251
06:00+11в337725 0.2 101633
09:00+11в4577100 0.2 101764
12:00+15вюв235945 0.0 1016280
15:00+16ююв134898 0.0 1014511
18:00+14в1158100 0.0 101413
21:00+14всв2257100 0.0 101412
12 декабря, вс
вс1200:00+14в2357100 0.0 101415
03:00+13в3363100 0.0 101420
06:00+12в336928 0.0 101224
09:00+12вюв34680 0.0 101391
12:00+16ююз5125236 0.0 1013996
15:00+12сз7882100 0.2 1013420
18:00+10з3595100 5.1 1015413
21:00+9юз3894100 11.9 1017545